Location: Stockholm
(59.3330°N, 18.0500°E)
Time: 14:10:20
(UTC+01:00)

Envisat - Pass Details

Date: 04 December 2022
Orbit: 763 x 765 km, 98.2° (Epoch: 29 January)

Event Time Altitude Azimuth Distance (km) Brightness Sun altitude
Rises 04:38:25 0° 16° (NNE) 3,250 6.5 -26.5°
Reaches altitude 10° 04:40:44 10° 16° (NNE) 2,319 5.6 -26.2°
Maximum altitude 04:45:51 81° 291° (WNW) 784 2.8 -25.6°
Enters shadow 04:46:02 79° 256° (WSW) 787 2.8 -25.5°
